Zurück zum Katalog

STARLINK-35161

AktivKommunikationVLEO
NORAD 65936·PAYLOAD·🇺🇸 United States

Gestartet Oct 8, 2025 von Vandenberg Space Force Base

Loading…

Nächste Überflüge (nächste 24 Stunden)

TLE

AktuellSource: CelesTrak SupGP

Epoche: Sep 14, 2026, 21:34 UTC

1 65936C 25225AC  26257.89909722 -.00001943  00000+0 -57418-4 0  2577
2 65936  53.1592   3.8538 0001214  85.3187  98.1547 15.34378124    16

Verfolge STARLINK-35161 in Echtzeit mit AllMySat

Download on the App Store